This is the latest recevied weather packets stored in our database for station/object DB0TV-13. If no packets are shown the sender has not sent any weather packets the latest 1 day(s).
| Time | Temp. | Humidity | Pressure | Rain* | Wind** | Luminosity | Snow |
|---|---|---|---|---|---|---|---|
| 1778082620 | 7.22° C | 98% | 1007.4 hPa | 0 mm | - | 99 W/m² | - |
| 1778081420 | 7.22° C | 98% | 1007.2 hPa | 0.25 mm | - | 106 W/m² | - |
| 1778080820 | 7.22° C | 98% | 1007.3 hPa | 0.25 mm | - | 91 W/m² | - |
| 1778080220 | 7.22° C | 98% | 1007.1 hPa | 0.51 mm | - | 130 W/m² | - |
| 1778079620 | 7.22° C | 98% | 1007.1 hPa | 0.51 mm | - | 108 W/m² | - |
| 1778078420 | 7.22° C | 98% | 1006.9 hPa | 0.51 mm | - | 84 W/m² | - |
| 1778077820 | 7.22° C | 98% | 1006.9 hPa | 0.51 mm | - | 96 W/m² | - |
| 1778077220 | 7.22° C | 98% | 1006.9 hPa | 0.51 mm | - | 214 W/m² | - |
| 1778074820 | 7.22° C | 98% | 1006.8 hPa | 1.02 mm | - | 115 W/m² | - |
| 1778074220 | 7.22° C | 98% | 1006.7 hPa | 1.02 mm | - | 136 W/m² | - |
| 1778072420 | 7.22° C | 98% | 1006.5 hPa | 1.02 mm | - | 113 W/m² | - |
| 1778070020 | 7.78° C | 98% | 1006.4 hPa | 0.51 mm | - | 96 W/m² | - |
| 1778069420 | 7.78° C | 98% | 1006.3 hPa | 0.51 mm | - | 68 W/m² | - |
| 1778067620 | 7.78° C | 98% | 1006 hPa | 0 mm | - | 67 W/m² | - |
| 1778067020 | 7.78° C | 98% | 1005.9 hPa | 0 mm | - | 71 W/m² | - |
| 1778063419 | 8.33° C | 98% | 1005.7 hPa | 0.25 mm | - | 78 W/m² | - |
| 1778062819 | 8.33° C | 98% | 1005.7 hPa | 0.25 mm | - | 77 W/m² | - |
| 1778059819 | 8.33° C | 98% | 1005.3 hPa | 0.51 mm | - | 87 W/m² | - |
| 1778059219 | 8.33° C | 98% | 1005.3 hPa | 0.51 mm | - | 76 W/m² | - |
| 1778058619 | 8.33° C | 98% | 1005.3 hPa | 0.51 mm | - | 72 W/m² | - |
| 1778057419 | 8.33° C | 98% | 1005.1 hPa | 1.02 mm | - | 65 W/m² | - |
| 1778056819 | 8.33° C | 98% | 1004.9 hPa | 1.02 mm | - | 57 W/m² | - |
| 1778055019 | 8.33° C | 98% | 1004.7 hPa | 0.51 mm | - | 62 W/m² | - |
| 1778054419 | 8.33° C | 98% | 1004.7 hPa | 0.51 mm | - | 52 W/m² | - |
| 1778053819 | 8.33° C | 98% | 1004.7 hPa | 0.51 mm | - | 57 W/m² | - |
* Rain latest hour (hover to see other rain measurements)
** Current wind speed in m/s (hover to see current wind gust speed)